Weather in Zaozyornoye

Russia / Republic of Crimea     45°09′38″N   33°17′08″E
temp.,
°C
wind,
m/s
gust,
m/s
humid.,
%
clouds,
%
prec.,
mm/h
press.,
hPa
HPBL,
m
25 february, thu
thu2500:00−2ene466567 0.0 1037261
03:00−2ne456634 0.0 1036171
06:00−2ne336669 0.0 1036129
09:000e235881 0.0 1035127
12:00+4w225181 0.0 1035307
15:00+4w346885 0.0 1034250
18:00+4wsw3483100 0.0 1033184
21:00+5wsw458898 0.1 1033226
26 february, fri
fri2600:00+6wsw459298 0.0 1032212
03:00+6w349399 0.1 1031170
06:00+6wsw2393100 0.0 103094
09:00+7wsw349299 0.0 1030181
12:00+9wsw457829 0.0 1029429
15:00+10wsw567714 0.0 1027449
18:00+8sw46890 0.0 1026287
21:00+7ssw69940 0.0 1025262
27 february, sat
sat2700:00+7sw610933 0.0 1024317
03:00+7sw610938 0.0 1023344
06:00+7sw599315 0.0 1021318
09:00+8sw698915 0.0 1020455
12:00+9sw688323 0.0 1019534
15:00+9wsw678351 0.0 1018520
18:00+9nw348699 0.1 1017363
21:00+7nnw698799 1.2 1018531
28 february, sun
sun2800:00+6nnw71078100 0.3 1018855
03:00+4nnw597681 0.3 1018507
06:00+4nw6108669 0.0 1018608
09:00+4nw688181 0.1 1019804
12:00+4nnw7871100 0.1 1020985
15:00+4nw6870100 0.3 1021945
18:00+3nnw7882100 0.4 1022752
21:00+3n598099 0.4 1024534
1 march, mon
mon100:00+2n698672 0.0 1026388
03:000n589136 0.0 1027298
06:000n579527 0.0 1028310
09:00+1n468356 0.0 1029526
12:00+3n4569100 0.1 1031899
15:00+3n4466100 0.1 1031868
18:00+2n4566100 0.0 1032937
21:00+2nne4676100 0.1 1033530